Location: Arbon
(43.0005°N, 0.7472°E)
Time: 00:26:30
(UTC+00:00)

S-56A Canister/Altair - Pass Details

Date: 06 December 2020
Orbit: 633 x 2499 km, 38.9° (Epoch: 19 January)

Event Time Altitude Azimuth Distance (km) Brightness Sun altitude
Rises 21:37:01 0° 280° (W) 5,425 12.4 -56.0°
Reaches altitude 10° 21:41:10 10° 275° (W) 4,139 11.6 -56.7°
Enters shadow 21:44:19 20° 269° (W) 3,169 10.8 -57.2°
